FW2834 Weather Reports


Display with metric or nautical units.
time (UTC)temp
F
wind
direction
speed
MPH
gust
MPH
rain 1hr
in
rain 24hr
in
rain mn
in
humidity
%
barometer
mb
20260904232037 78 165 0.0 0.0 0.00 0.01 0.01 69 1011.5
20260904231537 78 165 0.0 0.0 0.00 0.01 0.01 69 1011.4
20260904231036 78 165 0.0 0.0 0.00 0.01 0.01 69 1011.4
20260904230536 78 165 0.0 0.0 0.00 0.01 0.01 69 1011.5
20260904230036 79 165 0.0 0.0 0.00 0.01 0.01 69 1011.4
20260904225535 79 165 0.0 0.0 0.00 0.01 0.01 69 1011.5
20260904225034 79 165 0.0 0.0 0.00 0.01 0.01 68 1011.5
20260904224535 79 165 0.0 0.0 0.01 0.01 0.01 68 1011.5
20260904224035 79 165 0.0 0.0 0.01 0.01 0.01 67 1011.5
20260904223535 79 165 0.0 0.0 0.01 0.01 0.01 67 1011.4
20260904223043 79 165 0.0 0.0 0.01 0.01 0.01 66 1011.5
20260904222633 80 165 0.0 0.0 0.01 0.01 0.01 66 1011.6
20260904222033 80 165 0.0 0.0 0.01 0.01 0.01 67 1012.0
20260904221544 81 165 0.0 0.0 0.01 0.01 0.01 66 1012.1
20260904221033 81 165 0.0 0.0 0.01 0.01 0.01 66 1012.0
20260904220532 82 165 0.0 0.0 0.01 0.01 0.01 64 1012.5
20260904220033 82 165 0.0 0.0 0.01 0.01 0.01 63 1012.7
20260904215531 83 165 0.0 0.0 0.01 0.01 0.01 61 1012.9
20260904215031 83 165 0.0 0.0 0.00 0.00 0.00 60 1012.3
20260904214536 83 261 0.0 0.0 0.00 0.00 0.00 58 1013.1
20260904214031 84 265 0.0 0.0 0.00 0.00 0.00 57 1013.9
20260904213531 85 265 0.0 0.0 0.00 0.00 0.00 56 1013.5
20260904213031 85 279 0.0 0.0 0.00 0.00 0.00 55 1013.8
20260904212532 86 279 0.0 0.0 0.00 0.00 0.00 54 1013.1
20260904212030 87 279 0.0 0.0 0.00 0.00 0.00 53 1013.2
20260904211535 87 282 0.0 0.0 0.00 0.00 0.00 51 1013.4
20260904211030 88 280 0.0 0.0 0.00 0.00 0.00 49 1012.9
20260904210531 89 55 0.0 0.0 0.00 0.00 0.00 48 1012.6
20260904210032 90 221 0.0 0.0 0.00 0.00 0.00 46 1012.5
20260904205530 92 336 0.0 0.0 0.00 0.00 0.00 45 1012.5
20260904205033 93 309 0.0 0.0 0.00 0.00 0.00 43 1012.8
20260904204530 94 315 0.0 0.0 0.00 0.00 0.00 43 1012.5
20260904204030 95 137 0.0 0.0 0.00 0.00 0.00 43 1012.1
20260904203530 95 138 0.0 0.0 0.00 0.00 0.00 45 1011.8
20260904203033 95 326 0.0 0.0 0.00 0.00 0.00 46 1011.7
20260904202531 95 326 0.0 0.0 0.00 0.00 0.00 46 1011.9
20260904202032 95 326 0.0 0.0 0.00 0.00 0.00 44 1011.9
20260904201531 95 323 0.0 0.0 0.00 0.00 0.00 44 1011.9
20260904201028 95 323 0.0 0.0 0.00 0.00 0.00 43 1012.0
20260904200527 95 323 0.0 0.0 0.00 0.00 0.00 42 1011.9
20260904200025 95 313 0.0 0.0 0.00 0.00 0.00 42 1012.0
20260904195627 95 313 0.0 0.0 0.00 0.00 0.00 43 1012.1
20260904195023 95 70 0.0 0.0 0.00 0.00 0.00 44 1012.0
20260904194558 96 331 0.0 0.0 0.00 0.00 0.00 44 1012.1
20260904194024 96 329 0.0 0.0 0.00 0.00 0.00 45 1012.1
20260904193524 96 329 0.0 0.0 0.00 0.00 0.00 43 1012.1
20260904193035 96 329 0.0 0.0 0.00 0.00 0.00 43 1012.1
20260904192522 96 327 0.0 0.0 0.00 0.00 0.00 45 1012.0
20260904192021 96 327 0.0 0.0 0.00 0.00 0.00 42 1012.2
20260904191521 96 327 0.0 0.0 0.00 0.00 0.00 44 1012.2
20260904191024 96 331 0.0 0.0 0.00 0.00 0.00 43 1012.2
20260904190519 96 268 0.0 0.0 0.00 0.00 0.00 46 1012.3
20260904190017 96 323 0.0 0.0 0.00 0.00 0.00 46 1012.3
20260904185516 95 277 0.0 0.0 0.00 0.00 0.00 47 1012.5
20260904185016 95 276 0.0 0.0 0.00 0.00 0.00 46 1012.6
20260904184515 95 170 0.0 0.0 0.00 0.00 0.00 45 1012.7
20260904184014 95 305 0.0 0.0 0.00 0.00 0.00 46 1012.8
20260904183514 94 272 0.0 0.0 0.00 0.00 0.00 44 1012.9
20260904183014 94 313 0.0 0.0 0.00 0.00 0.00 46 1012.8
20260904182512 94 317 0.0 0.0 0.00 0.00 0.00 47 1012.9
20260904182012 94 222 0.0 0.0 0.00 0.00 0.00 46 1013.0
20260904181513 94 326 0.0 0.0 0.00 0.00 0.00 44 1013.0
20260904181012 94 325 0.0 0.0 0.00 0.00 0.00 45 1013.2
20260904180512 94 325 0.0 0.0 0.00 0.00 0.00 44 1013.2
20260904180010 94 311 0.0 0.0 0.00 0.00 0.00 45 1013.3
20260904175509 94 221 0.0 0.0 0.00 0.00 0.00 49 1013.4
20260904175009 94 145 0.0 0.0 0.00 0.00 0.00 47 1013.5
20260904174510 94 179 0.0 0.0 0.00 0.00 0.00 49 1013.6
20260904174009 94 317 0.0 0.0 0.00 0.00 0.00 48 1013.7
20260904173508 94 321 0.0 0.0 0.00 0.00 0.00 49 1013.7
20260904173011 94 321 0.0 0.0 0.00 0.00 0.00 46 1013.9
20260904172508 94 24 0.0 0.0 0.00 0.00 0.00 49 1013.8
20260904172008 94 15 0.0 0.0 0.00 0.00 0.00 50 1013.8
20260904171507 94 319 0.0 0.0 0.00 0.00 0.00 49 1013.9
20260904171007 94 321 0.0 0.0 0.00 0.00 0.00 47 1014.0
20260904170507 94 321 0.0 0.0 0.00 0.00 0.00 46 1014.0
20260904170007 94 13 0.0 0.0 0.00 0.00 0.00 47 1014.1
20260904165507 94 55 0.0 0.0 0.00 0.00 0.00 47 1014.0
20260904165007 94 24 0.0 0.0 0.00 0.00 0.00 47 1013.9
20260904164509 95 305 0.0 0.0 0.00 0.00 0.00 47 1014.0
20260904164005 95 307 0.0 0.0 0.00 0.00 0.00 46 1014.0
20260904163504 95 285 0.0 0.0 0.00 0.00 0.00 50 1014.0
20260904163003 94 285 0.0 0.0 0.00 0.00 0.00 50 1014.0
20260904162502 94 270 0.0 0.0 0.00 0.00 0.00 49 1014.0
20260904162005 94 336 0.0 0.0 0.00 0.00 0.00 49 1014.1
20260904161501 94 135 0.0 0.0 0.00 0.00 0.00 49 1014.0
20260904161100 94 134 0.0 0.0 0.00 0.00 0.00 48 1014.2
20260904160558 94 323 0.0 0.0 0.00 0.00 0.00 48 1014.2
20260904160058 94 10 0.0 0.0 0.00 0.00 0.00 49 1014.1
20260904155557 94 27 0.0 0.0 0.00 0.00 0.00 49 1014.2
20260904155056 94 30 0.0 0.0 0.00 0.00 0.00 52 1014.1
20260904154611 94 286 0.0 0.0 0.00 0.00 0.00 54 1014.0
20260904154053 93 286 0.0 0.0 0.00 0.00 0.00 52 1014.1
20260904153552 93 286 0.0 0.0 0.00 0.00 0.00 55 1014.1
20260904153053 93 286 0.0 0.0 0.00 0.00 0.00 56 1014.1
20260904152550 92 334 0.0 0.0 0.00 0.00 0.00 57 1014.1
20260904152047 92 334 0.0 0.0 0.00 0.00 0.00 57 1014.0
20260904151548 92 333 0.0 0.0 0.00 0.00 0.00 57 1013.9
20260904151045 91 244 0.0 0.0 0.00 0.00 0.00 60 1014.0
20260904150548 91 255 0.0 0.0 0.00 0.00 0.00 61 1014.0
20260904150042 90 223 0.0 0.0 0.00 0.00 0.00 61 1014.0
20260904145541 89 224 0.0 0.0 0.00 0.00 0.00 62 1014.0
20260904145040 89 223 0.0 0.0 0.00 0.00 0.00 64 1013.8
20260904144538 88 223 0.0 0.0 0.00 0.00 0.00 65 1013.9
20260904144038 87 269 0.0 0.0 0.00 0.00 0.00 66 1013.9
20260904143534 86 271 0.0 0.0 0.00 0.00 0.00 67 1013.9
20260904143033 86 271 0.0 0.0 0.00 0.00 0.00 69 1013.9
20260904142535 85 220 0.0 0.0 0.00 0.00 0.00 72 1014.0
20260904142030 84 220 0.0 0.0 0.00 0.00 0.00 73 1013.9
20260904141538 83 118 0.0 0.0 0.00 0.00 0.00 74 1014.0
20260904141031 82 118 0.0 0.0 0.00 0.00 0.00 76 1014.0
20260904140526 81 118 0.0 0.0 0.00 0.00 0.00 77 1014.0
20260904140025 80 118 0.0 0.0 0.00 0.00 0.00 80 1013.9
20260904135523 80 119 0.0 0.0 0.00 0.00 0.00 86 1013.9
20260904135025 79 119 0.0 0.0 0.00 0.00 0.00 88 1013.9
20260904134521 78 119 0.0 0.0 0.00 0.00 0.00 89 1013.9
20260904134019 78 119 0.0 0.0 0.00 0.00 0.00 89 1013.9
20260904133516 77 119 0.0 0.0 0.00 0.00 0.00 89 1014.1
20260904133017 77 119 0.0 0.0 0.00 0.00 0.00 89 1014.1
20260904132515 77 119 0.0 0.0 0.00 0.00 0.00 89 1014.1
20260904132014 77 113 0.0 0.0 0.00 0.00 0.00 89 1014.0
20260904131514 77 113 0.0 0.0 0.00 0.00 0.00 89 1014.1
20260904131013 77 113 0.0 0.0 0.00 0.00 0.00 89 1014.0
20260904130512 76 113 0.0 0.0 0.00 0.00 0.00 89 1013.9
20260904130012 76 113 0.0 0.0 0.00 0.00 0.00 88 1014.1
20260904125511 75 113 0.0 0.0 0.00 0.00 0.00 88 1014.0
20260904125010 75 113 0.0 0.0 0.00 0.00 0.00 87 1014.1
20260904124510 75 113 0.0 0.0 0.00 0.00 0.00 86 1014.1
20260904124008 75 113 0.0 0.0 0.00 0.00 0.00 85 1014.1
20260904123512 74 113 0.0 0.0 0.00 0.00 0.00 85 1014.1
20260904123007 74 113 0.0 0.0 0.00 0.00 0.00 84 1014.1
20260904122508 74 113 0.0 0.0 0.00 0.00 0.00 83 1013.9
20260904122007 74 113 0.0 0.0 0.00 0.00 0.00 81 1014.0
20260904121503 73 113 0.0 0.0 0.00 0.00 0.00 81 1013.9
20260904121002 73 113 0.0 0.0 0.00 0.00 0.00 81 1013.7
20260904120501 73 113 0.0 0.0 0.00 0.00 0.00 81 1013.8
20260904120100 73 113 0.0 0.0 0.00 0.00 0.00 80 1013.7
20260904115559 73 113 0.0 0.0 0.00 0.00 0.00 80 1013.6
20260904115103 73 113 0.0 0.0 0.00 0.00 0.00 80 1013.4
20260904114559 73 113 0.0 0.0 0.00 0.00 0.00 80 1013.5
20260904114058 73 113 0.0 0.0 0.00 0.00 0.00 80 1013.4
20260904113557 73 113 0.0 0.0 0.00 0.00 0.00 80 1013.3
20260904113100 73 113 0.0 0.0 0.00 0.00 0.00 80 1013.4
20260904112556 73 113 0.0 0.0 0.00 0.00 0.00 80 1013.2
20260904112056 73 113 0.0 0.0 0.00 0.00 0.00 79 1013.3
20260904111556 73 113 0.0 0.0 0.00 0.00 0.00 79 1013.3
20260904111056 73 113 0.0 0.0 0.00 0.00 0.00 79 1013.1
20260904110555 73 113 0.0 0.0 0.00 0.00 0.00 79 1012.9
20260904110055 73 113 0.0 0.0 0.00 0.00 0.00 79 1012.9
20260904105555 74 113 0.0 0.0 0.00 0.00 0.00 79 1012.9
20260904105056 74 113 0.0 0.0 0.00 0.00 0.00 79 1012.8
20260904104555 74 113 0.0 0.0 0.00 0.00 0.00 79 1012.7
20260904104055 74 113 0.0 0.0 0.00 0.00 0.00 79 1012.7
20260904103553 74 113 0.0 0.0 0.00 0.00 0.00 79 1012.7
20260904103054 74 113 0.0 0.0 0.00 0.00 0.00 79 1012.8
20260904102554 74 113 0.0 0.0 0.00 0.00 0.00 78 1012.8
20260904102053 74 113 0.0 0.0 0.00 0.00 0.00 78 1012.7
20260904101554 74 113 0.0 1.0 0.00 0.00 0.00 78 1012.8
20260904101052 74 113 0.0 1.0 0.00 0.00 0.00 78 1012.8
20260904100552 74 113 0.0 0.0 0.00 0.00 0.00 78 1012.7
20260904095555 74 113 0.0 0.0 0.00 0.00 0.00 78 1012.8
20260904095052 74 113 0.0 0.0 0.00 0.00 0.00 78 1012.8
20260904094551 74 113 0.0 0.0 0.00 0.00 0.00 78 1012.8
20260904094051 74 113 0.0 0.0 0.00 0.00 0.00 78 1012.7
20260904093553 74 113 0.0 0.0 0.00 0.00 0.00 78 1012.7
20260904093055 74 113 0.0 0.0 0.00 0.00 0.00 77 1012.8
20260904092550 74 113 0.0 0.0 0.00 0.00 0.00 77 1012.6
20260904092049 74 113 0.0 0.0 0.00 0.00 0.00 77 1012.7
20260904091549 74 113 0.0 0.0 0.00 0.00 0.00 77 1012.8
20260904091050 74 113 0.0 0.0 0.00 0.00 0.00 77 1012.8
20260904090549 74 113 0.0 0.0 0.00 0.00 0.00 77 1012.8
20260904090052 74 113 0.0 0.0 0.00 0.00 0.00 77 1012.7
20260904085549 74 113 0.0 0.0 0.00 0.00 0.00 77 1012.8
20260904085050 74 113 0.0 0.0 0.00 0.00 0.00 76 1012.8
20260904084548 74 113 0.0 0.0 0.00 0.00 0.00 76 1012.8
20260904084047 74 113 0.0 0.0 0.00 0.00 0.00 76 1012.8
20260904083547 74 113 0.0 0.0 0.00 0.00 0.00 76 1012.8
20260904083048 74 113 0.0 0.0 0.00 0.00 0.00 76 1012.8
20260904082546 74 113 0.0 0.0 0.00 0.00 0.00 76 1012.9
20260904082045 74 113 0.0 0.0 0.00 0.00 0.00 76 1012.9
20260904081548 74 113 0.0 0.0 0.00 0.00 0.00 76 1012.8
20260904081045 74 113 0.0 0.0 0.00 0.00 0.00 76 1012.8
20260904080546 74 113 0.0 1.0 0.00 0.00 0.00 75 1012.9
20260904080051 74 113 0.0 1.0 0.00 0.00 0.00 75 1012.9
20260904075544 74 113 0.0 0.0 0.00 0.00 0.00 75 1012.8
20260904075045 74 113 0.0 0.0 0.00 0.00 0.00 75 1012.8
20260904074543 74 113 0.0 0.0 0.00 0.00 0.00 74 1012.8
20260904074042 74 113 0.0 0.0 0.00 0.00 0.00 74 1012.7
20260904073541 74 113 0.0 0.0 0.00 0.00 0.00 74 1012.8
20260904073048 74 113 0.0 0.0 0.00 0.00 0.00 74 1012.8
20260904072540 74 113 0.0 0.0 0.00 0.00 0.00 74 1012.9
20260904072040 75 113 0.0 0.0 0.00 0.00 0.00 74 1013.0
20260904071540 75 113 0.0 0.0 0.00 0.00 0.00 74 1013.0
20260904071041 75 113 0.0 0.0 0.00 0.00 0.00 74 1012.9
20260904070540 75 113 0.0 0.0 0.00 0.00 0.00 74 1013.0
20260904070039 75 113 0.0 0.0 0.00 0.00 0.00 74 1013.1
20260904065536 75 113 0.0 0.0 0.00 0.00 0.00 74 1013.2
20260904065036 75 113 0.0 0.0 0.00 0.00 0.00 74 1013.3
20260904064536 75 113 0.0 0.0 0.00 0.00 0.00 73 1013.4
20260904064035 75 113 0.0 0.0 0.00 0.00 0.00 73 1013.4
20260904063537 75 113 0.0 0.0 0.00 0.00 0.00 73 1013.3
20260904063034 75 113 0.0 0.0 0.00 0.00 0.00 73 1013.3
20260904062535 76 113 0.0 0.0 0.00 0.00 0.00 73 1013.3
20260904062034 76 113 0.0 0.0 0.00 0.00 0.00 73 1013.3
20260904061538 76 113 0.0 0.0 0.00 0.00 0.00 73 1013.3
20260904061033 76 113 0.0 0.0 0.00 0.00 0.00 73 1013.4
20260904060533 76 113 0.0 0.0 0.00 0.00 0.00 73 1013.4
20260904060033 76 113 0.0 0.0 0.00 0.00 0.00 73 1013.4
20260904055533 76 113 0.0 0.0 0.00 0.00 0.00 73 1013.3
20260904055031 76 113 0.0 0.0 0.00 0.00 0.00 73 1013.3
20260904054535 76 113 0.0 0.0 0.00 0.00 0.00 73 1013.3
20260904054032 76 113 0.0 0.0 0.00 0.00 0.00 72 1013.3
20260904053530 76 113 0.0 0.0 0.00 0.00 0.00 72 1013.3
20260904053033 76 113 0.0 0.0 0.00 0.00 0.00 72 1013.3
20260904052529 76 113 0.0 0.0 0.00 0.00 0.00 72 1013.3
20260904052029 76 113 0.0 0.0 0.00 0.00 0.00 72 1013.3
20260904051533 76 113 0.0 0.0 0.00 0.00 0.00 72 1013.3
20260904051029 76 113 0.0 0.0 0.00 0.00 0.00 72 1013.3
20260904050528 77 113 0.0 0.0 0.00 0.00 0.00 72 1013.4
20260904050027 77 113 0.0 0.0 0.00 0.00 0.00 72 1013.3
20260904045527 77 113 0.0 0.0 0.00 0.00 0.00 72 1013.3
20260904045027 77 113 0.0 0.0 0.00 0.00 0.00 72 1013.3
20260904044539 77 113 0.0 0.0 0.00 0.00 0.00 71 1013.3
20260904044028 77 113 0.0 0.0 0.00 0.00 0.00 71 1013.3
20260904043528 77 113 0.0 0.0 0.00 0.00 0.00 71 1013.3
20260904043025 77 113 0.0 0.0 0.00 0.00 0.00 71 1013.4
20260904042525 77 113 0.0 0.0 0.00 0.00 0.00 71 1013.3
20260904042026 77 113 0.0 0.0 0.00 0.00 0.00 71 1013.3
20260904041534 77 113 0.0 0.0 0.00 0.00 0.00 71 1013.2
20260904041023 77 113 0.0 0.0 0.00 0.00 0.00 71 1013.3
20260904040523 77 113 0.0 0.0 0.00 0.00 0.00 70 1013.2
20260904040023 77 113 0.0 0.0 0.00 0.00 0.00 70 1013.3
20260904035522 78 113 0.0 0.0 0.00 0.00 0.00 70 1013.2
20260904035021 78 113 0.0 0.0 0.00 0.00 0.00 70 1013.2
20260904034521 78 113 0.0 0.0 0.00 0.00 0.00 70 1013.2
20260904034021 78 113 0.0 0.0 0.00 0.00 0.00 70 1013.3
20260904033522 78 113 0.0 0.0 0.00 0.00 0.00 70 1013.3
20260904033020 78 113 0.0 0.0 0.00 0.00 0.00 70 1013.3
20260904032520 78 113 0.0 0.0 0.00 0.00 0.00 70 1013.3
20260904032120 78 113 0.0 0.0 0.00 0.00 0.00 69 1013.2
20260904031520 78 113 0.0 0.0 0.00 0.00 0.00 69 1013.2
20260904031022 79 113 0.0 0.0 0.00 0.00 0.00 69 1013.2
20260904030519 79 113 0.0 0.0 0.00 0.00 0.00 69 1013.2
20260904030020 79 113 0.0 0.0 0.00 0.00 0.00 69 1013.3
20260904025519 79 113 0.0 0.0 0.00 0.00 0.00 69 1013.3
20260904025019 79 113 0.0 0.0 0.00 0.00 0.00 69 1013.3
20260904024520 79 113 0.0 0.0 0.00 0.00 0.00 69 1013.4
20260904024019 79 113 0.0 0.0 0.00 0.00 0.00 69 1013.4
20260904023521 80 113 0.0 0.0 0.00 0.00 0.00 68 1013.3
20260904023019 80 113 0.0 0.0 0.00 0.00 0.00 68 1013.3
20260904022521 80 113 0.0 0.0 0.00 0.00 0.00 68 1013.2
20260904022020 80 113 0.0 0.0 0.00 0.00 0.00 67 1013.3
20260904021518 80 113 0.0 0.0 0.00 0.00 0.00 67 1013.3
20260904021018 80 113 0.0 0.0 0.00 0.00 0.00 67 1013.3
20260904020518 81 113 0.0 0.0 0.00 0.00 0.00 67 1013.3
20260904020021 81 113 0.0 0.0 0.00 0.00 0.00 66 1013.3
20260904015517 81 113 0.0 0.0 0.00 0.00 0.00 66 1013.3
20260904015018 81 113 0.0 0.0 0.00 0.00 0.00 66 1013.3
20260904014518 81 113 0.0 0.0 0.00 0.00 0.00 65 1013.4
20260904014018 82 113 0.0 0.0 0.00 0.00 0.00 65 1013.4
20260904013516 82 113 0.0 0.0 0.00 0.00 0.00 65 1013.4
20260904013016 82 113 0.0 0.0 0.00 0.00 0.00 65 1013.4
20260904012516 82 113 0.0 0.0 0.00 0.00 0.00 64 1013.3
20260904012017 83 113 0.0 0.0 0.00 0.00 0.00 64 1013.3
20260904011516 83 113 0.0 0.0 0.00 0.00 0.00 64 1013.3
20260904011016 83 113 0.0 0.0 0.00 0.00 0.00 64 1013.3
20260904010516 84 113 0.0 0.0 0.00 0.00 0.00 63 1013.3
20260904010016 84 113 0.0 0.0 0.00 0.00 0.00 63 1013.3
20260904005515 84 113 0.0 0.0 0.00 0.00 0.00 62 1013.2
20260904005015 84 113 0.0 0.0 0.00 0.00 0.00 61 1013.2
20260904004516 85 113 0.0 0.0 0.00 0.00 0.00 61 1013.1
20260904004015 85 113 0.0 0.0 0.00 0.00 0.00 61 1013.0
20260904003514 86 113 0.0 0.0 0.00 0.00 0.00 61 1013.0
20260904003015 86 113 0.0 0.0 0.00 0.00 0.00 60 1012.9
20260904002515 86 113 0.0 0.0 0.00 0.00 0.00 59 1012.8
20260904002015 87 113 0.0 0.0 0.00 0.00 0.00 59 1012.9
20260904001515 87 113 0.0 0.0 0.00 0.00 0.00 58 1012.8
20260904001016 87 113 0.0 0.0 0.00 0.00 0.00 58 1012.9
20260904000514 87 113 0.0 0.0 0.00 0.00 0.00 57 1012.8
20260904000015 88 113 0.0 0.0 0.00 0.00 0.00 56 1012.7
20260903235513 88 113 0.0 0.0 0.00 0.00 0.00 56 1012.7
20260903235016 88 113 0.0 0.0 0.00 0.00 0.00 55 1012.8
20260903234513 88 113 0.0 0.0 0.00 0.00 0.00 55 1012.7
20260903234013 89 113 0.0 0.0 0.00 0.00 0.00 54 1012.7
20260903233512 89 113 0.0 0.0 0.00 0.00 0.00 54 1012.6
20260903233013 89 113 0.0 0.0 0.00 0.00 0.00 54 1012.7
20260903232512 89 113 0.0 0.0 0.00 0.00 0.00 53 1012.6